Hourly Weather Barlogi

Today, 6 May, Thursday

Time Temperature Precipitation Wind Pressure Humidity
00:00 +6°C° 0.2 mm 5 mps 739 mmHg 87%
01:00 +6°C° 0 mm 5 mps 739 mmHg 84%
02:00 +5°C° 0 mm 5 mps 739 mmHg 86%
03:00 +3°C° 0 mm 6 mps 740 mmHg 88%
04:00 +2°C° 0 mm 6 mps 741 mmHg 89%
05:00 +3°C° 0 mm 6 mps 741 mmHg 85%
06:00 +4°C° 0 mm 7 mps 742 mmHg 81%
07:00 +4°C° 0 mm 7 mps 742 mmHg 77%
08:00 +6°C° 0 mm 7 mps 742 mmHg 66%
09:00 +8°C° 0 mm 7 mps 743 mmHg 56%
10:00 +9°C° 0 mm 8 mps 743 mmHg 46%
11:00 +10°C° 0 mm 7 mps 743 mmHg 43%
12:00 +11°C° 0 mm 7 mps 743 mmHg 41%
13:00 +12°C° 0 mm 7 mps 743 mmHg 39%
14:00 +12°C° 0 mm 7 mps 742 mmHg 44%
15:00 +11°C° 0 mm 6 mps 742 mmHg 49%
16:00 +11°C° 0 mm 6 mps 742 mmHg 54%
17:00 +9°C° 0.2 mm 5 mps 742 mmHg 62%
18:00 +8°C° 0.2 mm 4 mps 742 mmHg 71%
19:00 +8°C° 0.2 mm 3 mps 742 mmHg 79%
20:00 +7°C° 0.1 mm 3 mps 742 mmHg 83%
21:00 +5°C° 0.1 mm 4 mps 742 mmHg 86%
22:00 +5°C° 0.1 mm 4 mps 742 mmHg 89%
23:00 +5°C° 0.1 mm 4 mps 742 mmHg 90%

Tomorrow, 7 May, Friday

Time Temperature Precipitation Wind Pressure Humidity
00:00 +5°C° 0.1 mm 3 mps 742 mmHg 90%
01:00 +5°C° 0.1 mm 3 mps 742 mmHg 90%
02:00 +5°C° 0.1 mm 3 mps 741 mmHg 90%
03:00 +6°C° 0.1 mm 2 mps 741 mmHg 90%
04:00 +6°C° 0.1 mm 2 mps 741 mmHg 89%
05:00 +6°C° 0.4 mm 2 mps 740 mmHg 89%
06:00 +7°C° 0.4 mm 3 mps 740 mmHg 89%
07:00 +7°C° 0.4 mm 3 mps 740 mmHg 89%
08:00 +7°C° 0 mm 4 mps 739 mmHg 87%
09:00 +8°C° 0 mm 5 mps 739 mmHg 85%
10:00 +9°C° 0 mm 6 mps 739 mmHg 83%
11:00 +9°C° 0.1 mm 6 mps 738 mmHg 82%
12:00 +9°C° 0.1 mm 6 mps 738 mmHg 81%
13:00 +9°C° 0.1 mm 6 mps 738 mmHg 80%
14:00 +10°C° 0.2 mm 7 mps 738 mmHg 77%
15:00 +10°C° 0.2 mm 7 mps 739 mmHg 74%
16:00 +10°C° 0.2 mm 7 mps 739 mmHg 71%
17:00 +9°C° 0.1 mm 8 mps 739 mmHg 75%
18:00 +6°C° 0.1 mm 8 mps 740 mmHg 80%
19:00 +3°C° 0.1 mm 9 mps 740 mmHg 84%
20:00 +2°C° 0.1 mm 8 mps 741 mmHg 87%
21:00 +3°C° 0.1 mm 7 mps 742 mmHg 91%
22:00 +2°C° 0.1 mm 7 mps 743 mmHg 94%
23:00 +2°C° 0.2 mm 7 mps 744 mmHg 94%

Day after tomorrow, 8 May, Saturday

Time Temperature Precipitation Wind Pressure Humidity
00:00 0°C° 0.2 mm 7 mps 744 mmHg 95%
01:00 0°C° 0.2 mm 7 mps 745 mmHg 95%
02:00 0°C° 0 mm 7 mps 745 mmHg 93%
03:00 0°C° 0 mm 7 mps 746 mmHg 91%
04:00 +1°C° 0 mm 6 mps 746 mmHg 89%
05:00 +2°C° 0 mm 6 mps 747 mmHg 88%
06:00 +2°C° 0 mm 6 mps 747 mmHg 88%
07:00 +2°C° 0 mm 6 mps 748 mmHg 87%
08:00 +3°C° 0.1 mm 6 mps 748 mmHg 81%
09:00 +4°C° 0.1 mm 7 mps 748 mmHg 76%
10:00 +5°C° 0.1 mm 7 mps 749 mmHg 71%
11:00 +7°C° 0.1 mm 6 mps 749 mmHg 66%
12:00 +8°C° 0.1 mm 6 mps 749 mmHg 61%
13:00 +9°C° 0.1 mm 6 mps 749 mmHg 55%
14:00 +10°C° 0.1 mm 6 mps 749 mmHg 54%
15:00 +10°C° 0.1 mm 5 mps 749 mmHg 53%
16:00 +10°C° 0.1 mm 5 mps 749 mmHg 52%
17:00 +10°C° 0 mm 4 mps 749 mmHg 59%
18:00 +7°C° 0 mm 4 mps 749 mmHg 67%
19:00 +5°C° 0 mm 3 mps 750 mmHg 74%
20:00 +5°C° 0 mm 2 mps 750 mmHg 77%
21:00 +5°C° 0 mm 2 mps 751 mmHg 80%
22:00 +4°C° 0 mm 2 mps 751 mmHg 82%
23:00 +4°C° 0 mm 2 mps 751 mmHg 83%

9 May, Sunday

Time Temperature Precipitation Wind Pressure Humidity
00:00 +3°C° 0 mm 2 mps 752 mmHg 84%
01:00 +3°C° 0 mm 2 mps 752 mmHg 85%
02:00 +3°C° 0 mm 2 mps 752 mmHg 85%
03:00 +3°C° 0 mm 2 mps 752 mmHg 84%
04:00 +3°C° 0 mm 2 mps 752 mmHg 84%
05:00 +5°C° 0 mm 2 mps 752 mmHg 78%
06:00 +7°C° 0 mm 3 mps 752 mmHg 72%
07:00 +9°C° 0 mm 3 mps 752 mmHg 65%
08:00 +10°C° 0 mm 4 mps 752 mmHg 61%
09:00 +12°C° 0 mm 4 mps 752 mmHg 56%
10:00 +14°C° 0 mm 5 mps 752 mmHg 51%
11:00 +15°C° 0 mm 5 mps 751 mmHg 49%
12:00 +15°C° 0 mm 5 mps 751 mmHg 47%
13:00 +16°C° 0 mm 5 mps 751 mmHg 44%
14:00 +16°C° 0 mm 5 mps 751 mmHg 47%
15:00 +16°C° 0 mm 5 mps 750 mmHg 50%
16:00 +18°C° 0 mm 4 mps 750 mmHg 52%
17:00 +15°C° 0 mm 4 mps 750 mmHg 60%
18:00 +13°C° 0 mm 4 mps 750 mmHg 67%
19:00 +11°C° 0 mm 4 mps 750 mmHg 74%
20:00 +11°C° 0 mm 4 mps 750 mmHg 74%
21:00 +10°C° 0 mm 5 mps 750 mmHg 73%
22:00 +9°C° 0 mm 5 mps 750 mmHg 73%
23:00 +9°C° 0 mm 5 mps 750 mmHg 73%

10 May, Monday

Time Temperature Precipitation Wind Pressure Humidity
00:00 +8°C° 0 mm 5 mps 750 mmHg 74%
01:00 +8°C° 0 mm 5 mps 750 mmHg 75%
02:00 +7°C° 0 mm 5 mps 750 mmHg 74%
03:00 +7°C° 0 mm 5 mps 750 mmHg 73%
04:00 +7°C° 0 mm 5 mps 750 mmHg 73%
05:00 +9°C° 0 mm 5 mps 750 mmHg 69%
06:00 +10°C° 0 mm 6 mps 750 mmHg 66%
07:00 +13°C° 0 mm 6 mps 749 mmHg 63%
08:00 +15°C° 0 mm 7 mps 749 mmHg 58%
09:00 +17°C° 0 mm 7 mps 749 mmHg 53%
10:00 +18°C° 0 mm 8 mps 749 mmHg 48%
11:00 +20°C° 0 mm 7 mps 749 mmHg 48%
12:00 +21°C° 0 mm 7 mps 749 mmHg 47%
13:00 +22°C° 0 mm 7 mps 749 mmHg 46%
14:00 +22°C° 0 mm 7 mps 748 mmHg 49%
15:00 +22°C° 0 mm 7 mps 748 mmHg 52%
16:00 +22°C° 0 mm 6 mps 748 mmHg 56%
17:00 +20°C° 0 mm 6 mps 748 mmHg 62%
18:00 +17°C° 0 mm 5 mps 748 mmHg 69%
19:00 +15°C° 0 mm 4 mps 748 mmHg 75%
20:00 +15°C° 0 mm 5 mps 748 mmHg 76%
21:00 +14°C° 0 mm 5 mps 748 mmHg 78%
22:00 +13°C° 0 mm 6 mps 748 mmHg 79%
23:00 +13°C° 0 mm 6 mps 748 mmHg 80%

11 May, Tuesday

Time Temperature Precipitation Wind Pressure Humidity
00:00 +12°C° 0 mm 5 mps 747 mmHg 81%
01:00 +10°C° 0 mm 5 mps 747 mmHg 83%
02:00 +10°C° 0 mm 5 mps 747 mmHg 80%
03:00 +10°C° 0 mm 6 mps 747 mmHg 78%
04:00 +9°C° 0 mm 6 mps 746 mmHg 76%
05:00 +11°C° 0 mm 7 mps 746 mmHg 74%
06:00 +12°C° 0 mm 7 mps 746 mmHg 72%
07:00 +14°C° 0 mm 7 mps 746 mmHg 70%
08:00 +16°C° 0 mm 8 mps 746 mmHg 65%
09:00 +18°C° 0 mm 8 mps 746 mmHg 61%
10:00 +21°C° 0 mm 8 mps 746 mmHg 56%
11:00 +22°C° 0 mm 8 mps 746 mmHg 55%
12:00 +23°C° 0 mm 8 mps 746 mmHg 53%
13:00 +24°C° 0 mm 8 mps 746 mmHg 52%
14:00 +23°C° 0 mm 8 mps 746 mmHg 55%
15:00 +23°C° 0 mm 7 mps 745 mmHg 58%
16:00 +22°C° 0 mm 7 mps 745 mmHg 61%
17:00 +21°C° 0 mm 7 mps 745 mmHg 63%
18:00 +18°C° 0 mm 7 mps 745 mmHg 66%
19:00 +17°C° 0 mm 7 mps 745 mmHg 68%
20:00 +16°C° 0 mm 7 mps 745 mmHg 67%
21:00 +16°C° 0 mm 7 mps 745 mmHg 65%
22:00 +15°C° 0 mm 7 mps 745 mmHg 64%
23:00 +14°C° 0 mm 7 mps 745 mmHg 65%
Show more